Weather in Guarapari

Brazil     20°39′44″S   40°30′04″W
temp.,
°C
wind,
m/s
gust,
m/s
humid.,
%
clouds,
%
prec.,
mm/h
press.,
hPa
HPBL,
m
15 may, sat
sat1500:00+20wsw237823 0.3 1020412
03:00+19w228478 0.4 1019218
06:00+18w338747 0.1 1019198
09:00+21wsw21751 0.1 1021345
12:00+22sse437214 0.0 1019599
15:00+22se336931 0.1 1018514
18:00+22se126952 0.0 1019516
21:00+21nne11710 0.0 1020355
16 may, sun
sun1600:00+19wnw22820 0.0 1020108
03:00+19wnw228510 0.0 1019120
06:00+18w22845 0.0 1019133
09:00+21sw11730 0.0 1021331
12:00+22sse326937 0.0 1019576
15:00+23ese33675 0.0 1017547
18:00+21e12720 0.0 1018389
21:00+21n2277100 0.0 1020264
17 may, mon
mon1700:00+19nnw22819 0.0 1019120
03:00+19nnw228298 0.0 1018110
06:00+19n238416 0.0 1018136
09:00+23nne35713 0.0 1019524
12:00+25ene556674 0.0 1017747
15:00+24ene667198 0.0 1015540
18:00+23ne6777100 0.0 1015422
21:00+22nne5882100 0.0 1016380
18 may, tue
tue1800:00+21nne578670 0.0 1015249
03:00+20n458466 0.0 1014168
06:00+20w228050 0.0 1015133
09:00+23sw227398 0.0 1017269
12:00+24s33710 0.0 1015452
15:00+24s56743 0.0 1014554
18:00+23ssw457696 0.0 1016530
21:00+22sw4578100 0.0 1017590
19 may, wed
wed1900:00+22sw568338 0.1 1017601
03:00+21sw448443 0.3 1016538
06:00+21wsw458890 0.3 1016412
09:00+22sw448134 0.4 1018481
12:00+22s328069 0.0 1016414
15:00+23ese337551 0.1 1014443
18:00+22ene227951 0.0 1015337
21:00+22nne128320 0.0 1015230